[[{"header":{"parameterUnit":"m.s-1","parameterCategory":1,"la1":30.2991,"la2":30.254,"lo1":-89.0895,"lo2":-89.0444,"dy":0.0017,"dx":0.0017,"nx":28,"ny":28,"refTime":"2024-07-02T21:00:00:Z","depth":0,"parameterNumber":2,"parameterNumberName":"U-component_of_WINDS"},"data":[0,0,0,0,0,0,0,0,0,0,0,0,0,0,0,0,0,0,0,0,0,0,0,0,0,0,0,0,0,0,0,0,0,0,0,0,0,0,0,0,0,0,0,0,0,0,0,0,0,0,0,0,0,0,0,0,0,0,-2.682,-2.682,0,-2.6799,-2.6799,-2.6798,-2.6741,-2.674,-2.6739,-2.6738,-2.672,-2.6721,-2.6721,0,0,0,0,0,0,0,0,0,0,0,0,0,-2.6818,-2.6818,-2.682,-2.682,-2.682,-2.6799,-2.6799,-2.6798,-2.6741,-2.674,-2.6738,-2.6737,-2.672,-2.6721,-2.6721,0,0,0,0,0,0,0,0,0,0,0,0,0,-2.681,-2.6818,-2.682,-2.6789,-2.6786,-2.6799,-2.6799,-2.6798,-2.6742,-2.674,-2.6738,-2.6736,-2.6719,-2.672,-2.6721,-2.6765,0,0,-2.6725,-2.6725,0,0,0,0,0,0,0,0,-2.6811,-2.681,-2.6794,-2.6791,-2.6787,-2.6771,-2.6791,-2.6787,-2.6742,-2.6759,-2.6738,-2.6735,-2.6739,-2.6738,-2.6738,-2.6764,-2.6763,-2.6725,-2.6725,-2.6726,-2.6726,0,0,0,0,0,0,0,-2.6811,-2.6811,-2.6812,-2.6793,-2.679,-2.6778,-2.6774,-2.679,-2.6759,-2.6757,-2.6753,-2.6751,-2.6737,-2.6737,-2.6737,-2.6763,-2.6725,-2.6726,-2.6726,-2.6727,-2.6827,-2.6829,0,0,0,0,0,0,-2.6816,-2.6812,-2.6813,-2.6811,-2.6795,-2.6779,-2.6776,-2.6778,-2.6759,-2.6754,-2.6752,-2.6748,-2.6736,-2.6736,-2.6736,-2.6787,-2.6726,-2.6727,-2.6727,-2.6825,-2.6827,-2.6829,0,0,0,0,0,0,-2.6816,-2.6816,-2.6813,-2.681,-2.6809,-2.6781,-2.6784,-2.6779,-2.6779,-2.6755,-2.675,-2.6758,-2.6735,-2.6735,-2.6759,-2.6786,-2.6727,-2.6728,-2.6822,-2.6825,-2.6828,-2.6888,0,0,0,0,0,0,-2.6816,-2.6816,-2.6831,-2.6811,-2.6809,-2.6834,-2.6786,-2.678,-2.678,-2.6775,-2.676,-2.6755,-2.6734,-2.6757,-2.676,-2.6786,-2.6729,-2.682,-2.6824,-2.6827,-2.6884,-2.6893,-2.6901,0,0,0,0,0,-2.6816,-2.6849,-2.6832,-2.6832,-2.6827,-2.6836,-2.6835,-2.6808,-2.6783,-2.6798,-2.6784,-2.6756,-2.6783,-2.676,-2.6762,-2.6789,-2.6818,-2.6822,-2.6827,-2.688,-2.6891,-2.6901,0,0,0,0,0,0,-2.6874,-2.6846,-2.6826,-2.6854,-2.6847,-2.6826,-2.6844,-2.682,-2.6822,-2.6816,-2.6784,-2.6782,-2.681,-2.6802,-2.6778,-2.6832,-2.6796,-2.6801,-2.6835,-2.6846,-2.6854,-2.6855,-2.673,0,0,0,0,0,-2.6889,-2.6897,-2.6873,-2.69,-2.6898,-2.6872,-2.6875,-2.6855,-2.6847,-2.6845,-2.6832,-2.6827,-2.6835,-2.684,-2.6846,-2.6883,-2.688,-2.6903,-2.6912,-2.6919,-2.6924,-2.6945,-2.6955,-2.6844,-2.6844,-2.6844,0,0,-2.6922,-2.6908,-2.6915,-2.6911,-2.6904,-2.6915,-2.687,-2.6883,-2.6891,-2.6847,-2.6868,-2.6859,-2.6852,-2.6883,-2.6896,-2.6878,-2.6954,-2.6925,-2.6931,-2.6931,-2.6951,-2.6961,-2.697,-2.6847,-2.6847,-2.6846,0,0,-2.6987,-2.6977,-2.6998,-2.6992,-2.6982,-2.6965,-2.6971,-2.6953,-2.6945,-2.6966,-2.6934,-2.6945,-2.6958,-2.6955,-2.6955,-2.7023,-2.6998,-2.7026,-2.707,-2.7091,-2.71,-2.7108,-2.7133,-2.7142,-2.7031,-2.7031,-2.7031,0,-2.7029,-2.7042,-2.7013,-2.7028,-2.7028,-2.6989,-2.7012,-2.7008,-2.7001,-2.7003,-2.6982,-2.7,-2.6992,-2.7023,-2.704,-2.7041,-2.7048,-2.7026,-2.7101,-2.7108,-2.7115,-2.7138,-2.7148,-2.7034,-2.7034,-2.7034,-2.7033,0,-2.7095,-2.7106,-2.7125,-2.7117,-2.712,-2.714,-2.7115,-2.7122,-2.7103,-2.7089,-2.7113,-2.7103,-2.7107,-2.7113,-2.7094,-2.7142,-2.7131,-2.7106,-2.7069,-2.7129,-2.7151,-2.716,-2.7039,-2.7038,-2.7037,-2.7036,0,0,-2.7193,-2.7171,-2.7179,-2.7176,-2.7163,-2.7171,-2.7191,-2.7193,-2.72,-2.7198,-2.7214,-2.7228,-2.7206,-2.7206,-2.7188,-2.7207,-2.7263,-2.718,-2.7179,-2.7196,-2.7316,-2.7334,-2.7345,-2.7247,-2.7249,-2.725,-2.7317,0,-2.7254,-2.7283,-2.7258,-2.7293,-2.7303,-2.7268,-2.7285,-2.728,-2.7269,-2.7278,-2.7266,-2.7277,-2.7246,-2.7247,-2.7264,-2.7252,-2.7286,-2.7247,-2.7263,-2.7264,-2.7264,-2.7356,-2.7374,-2.7437,-2.7325,-2.7326,-2.7327,0,-2.7328,-2.7328,-2.7363,-2.735,-2.7354,-2.7369,-2.7371,-2.7379,-2.7375,-2.7366,-2.7368,-2.7346,-2.7366,-2.7332,-2.736,-2.7334,-2.734,-2.7336,-2.7338,-2.7337,-2.7298,-2.7357,-2.7456,-2.7466,-2.734,-2.7339,-2.7338,0,-2.7396,-2.7406,-2.7428,-2.7427,-2.7412,-2.7424,-2.7419,-2.7413,-2.7417,-2.742,-2.7423,-2.7429,-2.7432,-2.7438,-2.7419,-2.7395,-2.7452,-2.7415,-2.7446,-2.7446,-2.7457,-2.7456,-2.7558,-2.7463,-2.7463,-2.7463,-2.7462,0,-2.7466,-2.7489,-2.7458,-2.7472,-2.7498,-2.7472,-2.7498,-2.749,-2.7485,-2.7499,-2.747,-2.7484,-2.7458,-2.747,-2.7456,-2.7483,-2.7485,-2.748,-2.7475,-2.7481,-2.7482,-2.7483,-2.7478,-2.7465,-2.7464,-2.7464,-2.7464,0,-2.7545,-2.7525,-2.7547,-2.7532,-2.7529,-2.7549,-2.7537,-2.7551,-2.7539,-2.7557,-2.7559,-2.7541,-2.7554,-2.7537,-2.7548,-2.7539,-2.7576,-2.7565,-2.7576,-2.7573,-2.7605,-2.7602,-2.771,-2.7723,-2.7621,-2.7622,-2.7622,0,-2.759,-2.7606,-2.7594,-2.76,-2.7596,-2.7607,-2.7611,-2.7588,-2.7594,-2.7592,-2.7606,-2.7617,-2.7623,-2.7646,-2.7635,-2.7645,-2.7634,-2.7672,-2.7635,-2.7642,-2.7635,-2.7633,-2.7635,-2.7679,-2.768,-2.7681,-2.7682,0,-2.7672,-2.7662,-2.7668,-2.7672,-2.7678,-2.768,-2.768,-2.7688,-2.7664,-2.7673,-2.7685,-2.769,-2.7702,-2.7714,-2.7721,-2.7718,-2.7697,-2.7694,-2.7701,-2.7707,-2.7712,-2.771,-2.7596,-2.7691,-2.769,-2.7689,-2.7689,-2.7688,-2.7735,-2.7749,-2.7742,-2.7751,-2.7749,-2.7751,-2.7763,-2.7753,-2.7762,-2.7769,-2.7756,-2.7772,-2.7771,-2.7778,-2.7778,-2.7792,-2.7776,-2.7787,-2.779,-2.7793,-2.7797,-2.7712,-2.7794,-2.7794,-2.7793,-2.7793,-2.7793,0,-2.7816,-2.781,-2.7819,-2.782,-2.7828,-2.7807,-2.7807,-2.7815,-2.7829,-2.7829,-2.7837,-2.7853,-2.7864,-2.7856,-2.7866,-2.7879,-2.787,-2.7883,-2.7881,-2.7881,-2.7811,-2.7803,-2.789,-2.789,-2.789,-2.789,-2.789,-2.789,-2.7858,-2.7881,-2.7871,-2.7894,-2.7889,-2.7903,-2.7905,-2.7908,-2.7907,-2.7926,-2.7935,-2.7929,-2.7927,-2.7937,-2.7948,-2.7946,-2.7951,-2.7967,-2.7961,-2.7896,-2.7886,-2.7877,-2.7869,-2.7969,-2.7969,-2.803,-2.803,-2.8031]},{"header":{"parameterUnit":"m.s-1","parameterCategory":1,"la1":30.2991,"la2":30.254,"lo1":-89.0895,"lo2":-89.0444,"dy":0.0017,"dx":0.0017,"nx":28,"ny":28,"refTime":"2024-07-02T21:00:00:Z","depth":0,"parameterNumber":3,"parameterNumberName":"V-component_of_WINDS"},"data":[0,0,0,0,0,0,0,0,0,0,0,0,0,0,0,0,0,0,0,0,0,0,0,0,0,0,0,0,0,0,0,0,0,0,0,0,0,0,0,0,0,0,0,0,0,0,0,0,0,0,0,0,0,0,0,0,0,0,3.2654,3.2655,0,3.2768,3.2769,3.277,3.2862,3.2863,3.2864,3.2865,3.2975,3.2977,3.2979,0,0,0,0,0,0,0,0,0,0,0,0,0,3.251,3.2512,3.2654,3.2655,3.2657,3.2768,3.2769,3.2771,3.2862,3.2863,3.2864,3.2865,3.2975,3.2977,3.2979,0,0,0,0,0,0,0,0,0,0,0,0,0,3.2592,3.2512,3.2654,3.2716,3.2723,3.2767,3.2769,3.2771,3.2862,3.2863,3.2865,3.2866,3.2974,3.2977,3.298,3.297,0,0,3.2989,3.299,0,0,0,0,0,0,0,0,3.2588,3.2598,3.2705,3.2712,3.2719,3.2802,3.2759,3.2838,3.2861,3.2809,3.2865,3.2867,3.2916,3.2924,3.2942,3.2975,3.298,3.2989,3.2991,3.2993,3.2993,0,0,0,0,0,0,0,3.2582,3.2593,3.2699,3.2707,3.2715,3.2736,3.2749,3.2774,3.2853,3.2813,3.282,3.2833,3.292,3.2939,3.2945,3.2982,3.2989,3.2992,3.2994,3.2995,3.3011,3.3009,0,0,0,0,0,0,3.2567,3.2588,3.2695,3.2702,3.2656,3.2737,3.2752,3.2774,3.2853,3.2866,3.2832,3.2837,3.2933,3.2942,3.2949,3.2942,3.2993,3.2995,3.2997,3.3012,3.301,3.3009,0,0,0,0,0,0,3.2564,3.2576,3.2691,3.2647,3.2663,3.2738,3.2762,3.2776,3.2794,3.2867,3.288,3.2837,3.2934,3.2945,3.2964,3.2947,3.2997,3.3,3.3014,3.3012,3.301,3.2927,0,0,0,0,0,0,3.2559,3.2574,3.2573,3.2646,3.2665,3.2705,3.2761,3.2777,3.28,3.2808,3.2875,3.2887,3.2936,3.2959,3.2967,3.2952,3.3002,3.3016,3.3013,3.301,3.2932,3.2922,3.2914,0,0,0,0,0,3.2554,3.2544,3.2572,3.2585,3.2665,3.2704,3.2714,3.2773,3.2799,3.2796,3.2843,3.2885,3.2948,3.296,3.297,3.2956,3.3017,3.3014,3.301,3.2935,3.2924,3.2915,0,0,0,0,0,0,3.2464,3.2555,3.2587,3.2601,3.2644,3.2719,3.2719,3.2759,3.2794,3.28,3.2869,3.2883,3.2894,3.2928,3.294,3.295,3.2988,3.2986,3.2927,3.2917,3.2909,3.2899,3.3005,0,0,0,0,0,3.2447,3.2472,3.2549,3.2554,3.2574,3.2642,3.2662,3.2703,3.275,3.2768,3.2816,3.2857,3.2887,3.2904,3.2935,3.2938,3.2952,3.2932,3.2924,3.2916,3.2913,3.2915,3.2907,3.2998,3.2998,3.2998,0,0,3.2409,3.2462,3.2474,3.2537,3.2576,3.2599,3.2657,3.2679,3.2696,3.2771,3.2792,3.2828,3.2879,3.2889,3.2896,3.2917,3.2892,3.2912,3.2906,3.2907,3.2911,3.2902,3.2894,3.2996,3.2996,3.2997,0,0,3.2353,3.2396,3.2405,3.2442,3.25,3.2546,3.2547,3.2616,3.2644,3.2667,3.2722,3.2743,3.2792,3.2826,3.285,3.2806,3.2845,3.2814,3.2768,3.2769,3.2762,3.2755,3.2737,3.2731,3.2811,3.2811,3.2811,0,3.2298,3.2337,3.2403,3.2422,3.2447,3.2518,3.2525,3.2558,3.2621,3.2636,3.266,3.2723,3.2762,3.278,3.277,3.2787,3.279,3.2805,3.2758,3.2752,3.2747,3.2731,3.2724,3.2807,3.2807,3.2808,3.2808,0,3.2267,3.2292,3.2292,3.2354,3.2379,3.2392,3.2457,3.2475,3.2514,3.2556,3.2577,3.2628,3.2669,3.2677,3.2715,3.27,3.2711,3.2745,3.2785,3.2733,3.2719,3.2713,3.2801,3.2802,3.2803,3.2804,0,0,3.2155,3.2254,3.2252,3.2281,3.235,3.237,3.2385,3.2428,3.2441,3.2483,3.2495,3.2536,3.2567,3.2594,3.2636,3.2638,3.2597,3.2671,3.2674,3.2654,3.2581,3.2553,3.2545,3.2625,3.2624,3.2623,3.2576,0,3.2108,3.2141,3.2201,3.2214,3.2237,3.2304,3.2317,3.236,3.24,3.2424,3.2467,3.2494,3.2535,3.2552,3.2556,3.2601,3.2583,3.2606,3.2634,3.2635,3.2617,3.2538,3.2509,3.2462,3.2571,3.257,3.2569,0,3.2057,3.2096,3.2112,3.2179,3.2191,3.2202,3.2245,3.2268,3.2317,3.2346,3.2376,3.2422,3.244,3.2478,3.2501,3.2515,3.2531,3.2554,3.2554,3.2557,3.2597,3.2536,3.2448,3.244,3.2562,3.2562,3.2563,0,3.1971,3.2028,3.2045,3.2067,3.2146,3.2152,3.2184,3.2235,3.2257,3.2294,3.2308,3.2346,3.2366,3.2394,3.2449,3.2472,3.2465,3.2508,3.2488,3.2486,3.2481,3.248,3.2392,3.2495,3.2495,3.2495,3.2495,0,3.1911,3.1917,3.2007,3.2017,3.2025,3.2093,3.2098,3.2137,3.2182,3.2198,3.2259,3.2273,3.2347,3.2369,3.2412,3.2423,3.2433,3.2455,3.2465,3.2448,3.2444,3.2457,3.246,3.2494,3.2494,3.2494,3.2495,0,3.1815,3.1876,3.1898,3.1972,3.199,3.1993,3.2055,3.2065,3.211,3.213,3.2138,3.2207,3.2236,3.2294,3.2339,3.2368,3.2368,3.239,3.2352,3.2358,3.2333,3.2334,3.2248,3.2239,3.2349,3.2348,3.2348,0,3.1771,3.1778,3.1852,3.1869,3.19,3.1925,3.1948,3.2015,3.2035,3.2091,3.2095,3.2129,3.216,3.2202,3.2255,3.2289,3.2309,3.2277,3.2315,3.2296,3.2306,3.2304,3.2303,3.2267,3.2266,3.2265,3.2264,0,3.1686,3.1716,3.1747,3.1788,3.1814,3.1849,3.1888,3.1897,3.1972,3.1992,3.2023,3.2047,3.2094,3.2126,3.2168,3.22,3.2243,3.2252,3.2249,3.2229,3.2206,3.2215,3.2326,3.2253,3.2254,3.2255,3.2255,3.2256,3.1614,3.1622,3.1675,3.1707,3.1744,3.1778,3.1791,3.1838,3.1866,3.1909,3.1947,3.1974,3.2022,3.2083,3.2112,3.2133,3.2155,3.215,3.2149,3.2146,3.2137,3.2205,3.2142,3.2142,3.2142,3.2143,3.2143,0,3.1529,3.1567,3.1596,3.1649,3.1673,3.1715,3.176,3.1777,3.18,3.1843,3.1872,3.1907,3.1938,3.1993,3.2029,3.2035,3.2056,3.2042,3.2041,3.2047,3.2117,3.2116,3.2024,3.2025,3.2025,3.2025,3.2025,3.2025,3.1488,3.1503,3.1539,3.1573,3.1611,3.1639,3.1661,3.1692,3.1726,3.1762,3.1789,3.1826,3.1873,3.1912,3.1942,3.1958,3.1967,3.1946,3.1967,3.2031,3.2042,3.2052,3.2051,3.1948,3.1948,3.1894,3.1894,3.1894]}]]